map of ZAM home
ZAM - Airport
Location
City:  Zamboanga, Philippines
Name:Zamboanga International Airport
ICAO:RPMZ
IATA:ZAM

Details
Type:Airport (Aerodrome, Airfield)
Use:Public/Civil, International (customs port of entry)
Latitude:6°55'21"N (6.922419)
Longitude:122°03'35"E (122.059633)
Datum:WGS 1984
Elevation:33 ft (10 m)
Variation:0.66°W (WMM2015 magnetic declination)
-0.10° annual change
Runways:1
Longest:8560 × 144 ft (2609 × 44 m), paved

Time
Time Zone:UTC+8
Local Time:

Weather
METAR:RPMZ 010400Z 18002KT 9999 FEW017 BKN100 31/26 Q1011 RMK A2985
TAF:RPMZ 302300Z 0100/0124 24004KT 9999 FEW017 SCT300
TEMPO 0106/0112 29010KT 9000 -SHRA FEW017CB FEW018 BKN100

Related Locations
Nearby:
Farthest:SITA: 12388 mi / 19937 km
Jacareacanga [Nossa Senhora da Conceição], PA, BR

Find:

   beyond  
but within

Other Information
Maps:
NOTAMs:
Links:
Sources:

  
flag of Philippines   

Sectional Chart

Flight Planning
at skyvector.com

Satellite Image

Google Maps Satellite view

 

Copyright © 2004-2016 Karl L. Swartz. All rights reserved.
The Great Circle Mapper name and logo are trademarks of the Great Circle Mapper.
All other trademarks mentioned herein belong to their respective owners.
Please see credits for attibutions and further copyright information.

  Follow gcmap on Facebook Follow gcmap on Twitter Follow gcmap on Google+ GCmap on LinkedIn

hCard Microformat

Geo Microformat